Temperature
16 16 16 15 15 15 15 15 15 15 15 15 15 15 15 14 14 14 14 14 14 14 14 14 14 14 13 13 13 13 13 13 13 13 12 11 11 11 11 11 11 11 11
16 16 15 15 15 15 15 15 15 15 15 15 14 14 14 14 14 14 14 14 14 13 13 13 13 13 13 13 13 13 13 13 12 12 12 11 11 11 11 11 11 11 11
16 15 15 15 15 15 15 15 15 15 15 15 14 14 14 14 14 14 14 14 13 13 13 13 13 13 13 13 13 13 12 12 12 12 12 11 11 11 11 11 10 10 10
16 15 15 15 15 15 15 15 15 14 14 14 14 14 14 14 14 14 14 14 13 13 13 13 13 13 13 12 12 12 12 12 12 11 11 11 11 10 10 10 10 10 10
16 16 15 15 15 15 15 15 14 14 14 14 14 14 14 14 14 14 13 13 13 13 13 13 13 13 13 13 12 12 12 12 11 11 11 10 10 10 10 10 10 10 10
16 15 15 15 15 15 15 15 14 14 14 14 14 14 14 14 14 14 13 13 13 13 13 12 12 12 12 12 12 12 12 11 11 11 10 10 10 10 10 9 9 9 9
16 15 15 15 15 15 15 14 14 14 14 14 14 14 14 14 14 13 13 13 13 13 12 12 12 12 12 12 12 12 12 11 11 10 10 10 9 9 9 9 9 9 9
15 15 15 15 15 15 15 14 14 14 14 14 14 14 14 13 13 13 13 13 13 12 12 12 12 12 11 11 11 11 11 11 11 10 10 9 9 9 9 9 8 8 8
15 15 15 15 15 15 15 14 14 14 14 14 13 13 13 13 13 13 13 12 12 12 12 12 11 11 11 11 11 10 10 10 10 10 10 10 10 9 9 9 8 8 8
15 15 15 15 15 15 15 14 14 14 14 13 13 13 13 13 13 13 12 12 12 12 11 11 11 11 11 11 10 10 10 10 9 9 9 9 9 9 9 8 8 7 7
15 15 15 15 15 15 14 14 14 14 13 13 13 13 13 12 12 12 12 12 11 11 11 11 11 11 11 10 10 10 10 10 9 9 9 9 8 8 8 7 7 7 7
15 15 15 14 14 14 14 14 14 13 13 13 12 12 12 12 12 12 12 12 11 11 11 11 11 10 10 10 10 10 10 9 9 9 8 8 8 8 7 7 7 7 6
14 14 14 14 14 14 14 14 13 13 13 12 12 12 12 12 12 12 12 11 11 11 11 10 10 10 10 10 10 9 9 9 8 8 8 8 7 7 7 7 7 7 6
14 14 14 14 14 13 13 13 13 13 12 12 12 12 12 11 11 11 11 11 11 10 10 10 10 10 9 9 9 9 9 8 8 8 7 7 7 7 7 6 6 6 6
13 13 13 14 14 13 13 13 13 13 12 12 12 12 12 11 11 11 11 11 11 10 10 10 9 9 9 9 9 8 8 8 8 7 7 7 6 6 6 6 6 5 5
13 13 13 13 13 13 13 12 12 12 12 12 12 11 11 11 11 11 11 11 10 10 10 9 9 9 9 8 8 8 8 7 7 7 6 6 6 6 6 5 5 5 5
13 13 13 13 13 13 12 12 12 11 11 11 11 11 11 11 11 11 10 10 10 10 9 9 9 9 8 8 8 7 7 7 7 6 6 6 6 5 5 5 5 5 4
13 13 13 12 12 12 12 12 12 11 11 11 11 10 10 10 10 10 10 10 9 9 9 9 8 8 8 8 7 7 7 6 6 6 6 5 5 5 4 4 4 4 4
13 12 12 12 12 12 12 11 11 11 10 10 10 10 10 10 10 10 9 9 9 9 9 8 8 8 8 7 7 7 6 6 6 5 5 5 5 4 4 4 4 4 3
12 12 12 12 12 11 11 11 11 10 10 10 10 10 10 9 9 9 9 9 9 8 8 8 8 8 7 7 7 6 6 6 5 5 5 4 4 4 4 3 3 3 3
12 12 12 11 11 11 11 11 10 10 10 9 9 9 9 9 9 9 9 9 8 8 8 8 7 7 7 6 6 6 5 5 5 4 4 4 3 3 3 3 3 2 2
12 11 11 11 11 11 11 10 10 10 9 9 9 9 9 9 9 8 8 8 8 8 8 7 7 7 6 6 6 5 5 5 4 4 4 3 3 3 3 2 2 2 2
12 11 11 11 11 11 10 10 10 9 9 9 9 9 9 8 8 8 8 8 8 7 7 7 6 6 6 6 5 5 5 4 4 4 4 3 3 2 2 2 2 1 1
11 11 11 10 10 10 10 9 9 9 9 9 8 8 8 8 8 8 8 7 7 7 7 6 6 6 6 5 5 5 4 4 4 4 3 3 2 2 2 2 1 1 1
11 11 10 10 10 9 9 9 9 9 8 8 8 8 8 8 8 7 7 7 7 7 6 6 6 5 5 5 5 4 4 4 3 3 3 2 2 2 1 1 1 1 1
10 10 10 10 9 9 9 9 9 8 8 8 8 8 7 7 7 7 7 7 6 6 6 5 5 5 5 5 4 4 4 3 3 3 2 2 2 1 1 1 1 1 0
Wind_Speed
10 9 8 7 6 6 5 5 5 4 4 4 4 4 3 3 4 4 3 3 3 3 2 2 2 2 1 1 2 2 2 2 1 1 2 3 3 3 3 4 3 3 5
9 9 8 8 7 6 6 5 5 5 5 4 4 4 4 3 3 4 4 3 3 3 2 2 2 2 2 2 2 2 2 2 1 2 2 2 3 4 4 3 3 4 4
9 9 9 8 8 7 6 6 6 6 5 5 5 4 4 4 4 4 4 3 3 2 2 2 2 2 2 2 2 2 2 2 1 1 2 2 2 3 3 3 3 4 4
10 10 9 8 8 7 6 6 6 6 6 5 5 5 4 4 4 4 4 4 3 3 3 3 2 3 2 2 2 2 2 2 1 1 1 1 2 2 3 3 3 3 4
10 10 9 8 8 7 6 6 6 6 5 5 5 5 4 3 3 3 4 4 4 3 3 3 4 5 7 5 3 3 2 1 1 1 2 2 2 2 3 3 4 4 3
10 10 8 8 8 7 7 7 6 6 6 5 5 5 4 3 5 2 2 4 3 3 3 3 4 4 5 5 5 6 6 3 2 2 2 2 3 3 3 3 4 4 4
10 10 9 9 9 8 8 7 7 7 6 6 5 5 5 5 6 4 2 2 3 2 2 2 2 2 1 3 4 5 4 4 4 3 3 3 4 4 4 4 4 4 4
10 10 9 9 9 8 8 7 7 7 6 5 5 5 5 5 7 6 4 3 3 3 2 2 2 2 2 1 1 2 2 3 3 2 2 3 4 4 4 4 4 4 4
10 9 10 9 9 9 8 8 7 6 6 5 5 5 5 5 7 6 4 3 3 3 3 2 1 2 4 2 0 1 1 2 5 3 4 4 5 5 5 3 4 4 4
9 9 9 9 9 9 8 8 7 7 6 5 5 4 4 4 6 6 5 3 4 3 3 3 4 2 3 2 1 0 1 1 1 0 0 1 1 1 2 3 4 4 4
8 8 8 8 8 8 8 7 7 7 6 6 5 4 4 3 6 6 4 3 3 3 2 2 3 5 3 1 2 1 2 3 2 2 2 2 2 2 3 3 4 4 5
8 8 8 8 8 7 8 8 8 7 7 6 6 5 3 4 3 5 4 2 1 2 2 2 3 6 3 1 0 2 2 2 2 2 2 2 2 3 3 4 4 5 5
9 8 8 8 8 8 8 8 8 7 6 6 5 5 4 4 4 6 6 4 2 2 1 4 4 4 3 2 2 1 1 2 2 2 3 2 3 3 4 4 5 5 6
9 8 8 8 8 8 6 7 7 7 6 6 6 5 5 5 4 5 5 5 5 4 3 5 6 4 3 1 1 2 2 2 2 3 3 3 3 3 3 4 4 4 5
9 9 8 8 8 7 6 4 5 5 5 6 6 6 6 5 4 3 4 4 4 3 3 3 2 2 2 1 1 1 2 2 2 3 3 3 3 3 4 4 4 5 6
9 8 7 7 7 6 6 5 5 3 6 4 3 3 3 4 7 6 5 5 5 5 4 3 2 2 2 2 2 2 2 2 2 3 3 3 4 4 4 4 5 5 6
9 8 7 7 7 7 7 7 6 5 6 6 5 5 5 6 7 7 7 6 6 6 3 3 2 2 2 2 2 2 2 2 2 3 3 4 4 5 5 5 5 6 7
8 7 7 7 7 7 7 6 6 6 6 4 4 6 6 6 7 7 7 6 4 4 3 3 2 2 2 2 2 2 2 2 2 3 3 4 4 5 5 6 6 7 7
8 7 7 6 6 7 7 6 6 6 6 5 5 6 7 7 6 6 6 4 4 3 3 3 2 2 2 3 2 2 3 3 3 3 3 4 4 5 6 6 7 7 8
7 8 7 7 7 7 7 7 6 6 6 6 6 5 6 6 5 5 4 3 3 3 3 3 3 2 2 2 2 3 3 3 3 3 3 4 4 5 6 6 7 7 7
7 8 8 7 6 7 6 6 6 6 6 5 5 5 6 6 5 5 4 4 4 3 3 3 3 3 3 3 3 4 4 4 3 4 4 4 5 5 5 6 6 7 7
7 7 7 6 6 6 6 6 6 6 6 6 5 5 7 5 4 4 4 4 3 3 3 3 3 2 3 3 3 4 4 4 4 4 4 4 5 5 5 5 6 7 7
6 7 7 6 6 7 6 6 6 6 6 6 5 5 5 5 4 4 4 3 3 3 3 3 3 2 3 3 3 4 4 4 4 5 5 5 5 6 6 6 8 8 8
7 7 7 6 6 6 6 6 5 5 5 5 5 5 4 4 4 4 3 2 2 2 2 2 2 3 3 2 3 3 3 4 5 5 6 6 6 6 6 7 7 8 8
6 6 6 6 6 6 6 6 5 5 5 5 4 4 4 4 4 3 3 3 3 2 2 2 2 2 3 3 3 3 2 3 5 6 6 6 6 7 7 7 7 8 8
6 6 6 6 6 6 6 5 5 5 5 4 4 4 4 4 3 3 3 3 3 2 2 1 2 1 2 2 1 1 2 3 4 6 7 6 6 6 7 7 8 8 9
Wind_Direction
179 176 174 174 175 175 177 174 170 163 160 159 151 147 141 139 135 130 125 123 125 119 109 89 78 49 45 35 19 4 360 349 344 21 36 33 35 32 38 22 23 24 57
177 177 177 175 176 178 177 175 172 166 165 164 154 147 139 138 140 136 129 127 122 115 107 90 79 78 52 27 16 14 12 359 341 2 22 28 19 24 19 14 21 24 27
174 175 177 178 178 178 177 171 172 169 165 166 158 152 148 145 141 136 130 126 120 111 96 85 70 72 72 54 30 25 19 22 9 343 19 24 7 17 4 1 13 8 2
174 177 179 177 176 174 168 166 169 167 166 164 156 153 150 150 148 143 136 129 118 105 90 80 66 63 51 47 44 29 20 26 24 16 23 25 10 352 334 344 350 354 352
177 180 180 177 173 169 162 164 165 163 164 159 152 148 142 145 144 147 142 136 128 114 101 90 73 61 41 30 27 25 22 21 26 11 8 14 8 356 345 336 334 332 345
180 181 175 173 171 171 167 166 164 163 161 155 152 146 141 137 110 102 160 145 138 129 120 110 110 107 100 83 58 42 23 14 5 10 356 355 349 347 339 324 327 325 327
180 175 174 174 172 174 170 167 165 165 161 159 156 151 148 131 130 137 158 158 140 128 127 124 106 95 135 120 121 131 81 43 358 344 356 353 344 343 328 320 326 321 321
179 176 176 176 173 171 170 170 171 166 161 164 161 158 146 138 140 146 164 169 142 134 135 132 131 118 71 40 98 81 61 56 31 4 359 1 359 348 330 316 310 303 305
178 179 177 177 174 171 171 172 171 166 163 167 165 162 159 153 150 159 183 154 151 144 131 105 106 111 77 348 66 92 77 74 79 59 25 22 20 7 340 317 320 312 314
181 182 179 177 175 175 174 170 166 166 165 163 160 168 168 161 146 166 201 177 170 157 144 126 80 72 89 330 291 358 358 20 4 53 297 248 314 17 333 316 318 309 312
177 177 174 174 176 173 167 165 164 164 163 164 162 164 165 157 147 162 203 198 181 175 169 152 114 115 107 34 329 3 19 338 321 322 331 342 341 346 346 330 326 311 307
167 169 172 173 170 165 161 163 166 163 163 166 167 163 163 153 143 156 170 207 235 184 178 156 122 127 126 112 57 58 32 302 296 302 316 330 333 335 333 327 316 305 298
166 168 169 169 167 166 165 165 166 167 170 174 174 173 166 157 145 145 157 156 159 167 122 83 103 138 156 160 146 149 240 273 289 293 300 313 320 320 320 316 308 303 295
168 168 169 167 163 164 166 170 171 174 178 180 179 179 172 169 168 163 162 156 154 161 159 132 139 154 180 162 159 192 243 280 290 292 303 307 307 306 303 307 305 306 301
169 168 168 164 158 158 156 161 173 175 182 181 181 180 176 177 159 136 167 172 173 169 167 173 178 176 183 193 215 232 252 261 271 284 291 296 297 297 302 309 305 298 296
169 169 166 161 157 156 151 135 79 102 110 120 120 155 153 133 128 136 136 132 133 153 171 181 192 203 222 238 253 258 260 272 286 290 289 291 294 295 299 303 301 296 296
171 168 164 162 160 159 158 156 147 114 104 114 124 133 142 137 136 141 139 136 146 165 180 196 207 217 232 244 256 264 273 282 289 288 288 291 294 294 296 299 298 297 297
170 163 163 164 165 164 163 164 164 161 155 148 143 147 148 145 147 148 151 149 151 172 199 214 222 229 239 248 254 264 274 279 281 286 290 295 298 297 296 297 298 301 301
164 162 164 161 162 162 161 160 162 164 162 158 154 151 152 149 149 159 170 180 181 192 209 220 232 242 250 255 260 262 268 272 279 283 288 292 293 294 296 302 303 304 299
160 152 157 159 160 161 161 161 164 166 166 167 171 166 159 164 169 172 183 198 203 207 217 223 228 238 250 257 259 259 264 268 273 277 283 286 288 289 292 296 301 303 301
158 156 158 160 162 163 164 166 168 170 170 171 175 165 167 181 184 186 192 203 212 215 221 227 230 235 243 247 252 256 263 268 271 277 283 286 288 290 292 294 297 297 300
159 159 163 164 162 165 166 169 169 170 172 173 171 161 167 188 190 194 199 209 216 218 219 227 234 237 238 242 250 260 267 271 273 277 282 287 290 291 293 294 296 298 298
156 157 159 159 159 155 163 167 168 171 173 175 172 170 178 189 193 198 199 201 204 209 210 220 235 238 239 245 250 256 266 277 287 286 286 286 287 288 289 289 291 295 297
154 157 158 158 159 164 167 169 170 172 174 175 174 174 179 186 191 190 186 182 187 196 203 217 231 240 248 256 257 259 268 286 293 288 284 284 284 286 286 287 290 292 293
155 156 159 161 161 163 165 166 167 168 170 171 172 172 173 175 177 176 176 174 176 180 192 210 216 227 238 250 259 267 284 287 288 294 292 285 283 284 287 288 290 294 295
159 159 159 161 163 165 167 167 166 165 165 165 168 170 169 168 170 169 168 168 168 171 184 199 211 229 242 250 272 301 295 278 282 288 289 288 286 285 289 287 290 292 293
Height
1554 1556 1558 1560 1562 1563 1565 1566 1567 1569 1569 1571 1571 1572 1573 1573 1573 1573 1573 1574 1574 1574 1574 1574 1573 1573 1572 1572 1571 1570 1570 1569 1568 1567 1565 1562 1560 1558 1557 1556 1556 1555 1553
1552 1554 1556 1558 1560 1562 1564 1565 1566 1568 1569 1570 1571 1571 1572 1572 1573 1573 1573 1573 1574 1574 1574 1574 1573 1572 1572 1571 1570 1570 1569 1568 1568 1566 1565 1563 1561 1559 1558 1557 1556 1555 1553
1550 1552 1555 1557 1559 1561 1562 1564 1565 1567 1568 1569 1570 1571 1571 1572 1572 1573 1573 1573 1574 1574 1574 1573 1573 1572 1572 1571 1570 1570 1569 1568 1567 1566 1565 1563 1561 1560 1558 1557 1556 1554 1553
1548 1550 1553 1555 1557 1559 1561 1562 1564 1566 1567 1569 1569 1570 1571 1571 1572 1572 1573 1573 1573 1573 1573 1573 1573 1572 1572 1571 1570 1569 1568 1568 1567 1566 1565 1563 1561 1560 1559 1557 1556 1554 1552
1545 1548 1551 1553 1555 1557 1559 1561 1563 1564 1566 1567 1568 1569 1570 1570 1571 1571 1572 1572 1573 1573 1573 1572 1572 1571 1571 1570 1570 1569 1568 1567 1567 1566 1565 1563 1562 1560 1558 1557 1555 1554 1552
1543 1546 1549 1551 1553 1555 1557 1559 1561 1563 1565 1566 1567 1568 1569 1569 1570 1570 1571 1571 1572 1572 1572 1572 1571 1570 1570 1569 1569 1568 1567 1567 1566 1565 1564 1563 1562 1560 1557 1556 1555 1553 1551
1541 1544 1546 1549 1551 1554 1556 1558 1559 1561 1563 1564 1565 1566 1567 1568 1569 1569 1570 1570 1570 1571 1571 1571 1571 1570 1570 1569 1568 1567 1566 1565 1565 1565 1564 1562 1561 1559 1557 1555 1553 1552 1550
1538 1541 1544 1547 1549 1552 1554 1556 1558 1559 1561 1562 1564 1565 1566 1567 1568 1568 1569 1569 1569 1569 1570 1570 1570 1569 1569 1568 1568 1567 1566 1564 1563 1563 1562 1560 1559 1557 1556 1554 1552 1550 1548
1535 1538 1541 1544 1547 1549 1551 1554 1556 1557 1559 1561 1562 1563 1564 1565 1566 1567 1568 1568 1568 1568 1568 1568 1568 1568 1567 1567 1567 1566 1565 1563 1562 1561 1560 1558 1557 1555 1554 1552 1550 1549 1547
1532 1536 1539 1542 1544 1547 1549 1552 1553 1555 1557 1559 1560 1561 1563 1564 1565 1566 1566 1567 1567 1567 1567 1567 1567 1566 1566 1566 1565 1565 1564 1563 1561 1560 1558 1557 1556 1554 1552 1550 1549 1547 1545
1530 1533 1536 1539 1542 1544 1547 1549 1551 1553 1555 1556 1558 1559 1561 1562 1563 1564 1565 1565 1566 1566 1566 1566 1565 1565 1564 1564 1563 1563 1562 1561 1560 1559 1557 1556 1554 1552 1550 1549 1547 1545 1543
1527 1530 1533 1536 1539 1542 1544 1546 1549 1551 1552 1554 1556 1557 1558 1559 1560 1561 1562 1563 1564 1564 1564 1564 1563 1563 1563 1562 1561 1561 1560 1559 1558 1557 1556 1554 1552 1550 1548 1546 1544 1542 1540
1525 1527 1530 1533 1536 1539 1541 1543 1546 1548 1549 1551 1553 1554 1556 1557 1558 1559 1560 1561 1561 1562 1562 1562 1562 1561 1561 1560 1559 1559 1558 1557 1556 1555 1554 1552 1550 1548 1546 1543 1542 1540 1537
1522 1525 1528 1530 1533 1536 1538 1541 1543 1544 1546 1548 1550 1551 1553 1554 1555 1556 1557 1558 1559 1559 1560 1560 1559 1559 1559 1558 1557 1557 1556 1555 1554 1553 1551 1550 1548 1545 1543 1541 1539 1537 1534
1519 1522 1525 1528 1530 1533 1535 1537 1539 1541 1543 1545 1547 1548 1550 1551 1552 1554 1555 1556 1556 1557 1557 1557 1557 1557 1557 1556 1555 1555 1554 1553 1551 1550 1548 1547 1545 1543 1541 1538 1536 1534 1532
1517 1520 1522 1524 1527 1529 1532 1534 1537 1539 1541 1543 1544 1546 1547 1549 1550 1551 1552 1553 1554 1554 1555 1555 1555 1555 1555 1554 1553 1552 1551 1550 1548 1547 1546 1544 1542 1540 1538 1535 1533 1531 1528
1514 1517 1519 1522 1524 1526 1529 1531 1533 1536 1537 1539 1541 1543 1545 1546 1547 1549 1550 1551 1551 1552 1552 1553 1553 1552 1552 1551 1550 1549 1548 1547 1545 1544 1542 1541 1539 1537 1535 1533 1530 1528 1525
1512 1514 1517 1519 1521 1524 1526 1529 1531 1532 1534 1536 1538 1540 1542 1544 1545 1546 1547 1548 1548 1549 1549 1550 1550 1549 1549 1548 1547 1546 1545 1543 1542 1541 1539 1537 1535 1533 1531 1529 1527 1524 1521
1510 1512 1514 1517 1519 1521 1523 1526 1528 1530 1532 1533 1535 1537 1539 1541 1542 1543 1544 1545 1545 1546 1546 1546 1546 1546 1545 1545 1544 1543 1541 1540 1539 1537 1536 1534 1532 1530 1528 1526 1523 1520 1518
1508 1510 1512 1514 1516 1519 1521 1523 1525 1527 1529 1531 1533 1534 1536 1538 1539 1540 1541 1541 1542 1542 1543 1543 1543 1542 1542 1541 1540 1539 1538 1537 1535 1534 1532 1530 1528 1526 1524 1522 1519 1517 1514
1505 1508 1510 1512 1514 1516 1518 1521 1523 1525 1526 1528 1530 1532 1533 1535 1536 1537 1538 1538 1539 1539 1539 1539 1539 1538 1538 1537 1536 1535 1534 1533 1531 1530 1528 1526 1524 1523 1520 1518 1515 1513 1510
1503 1505 1508 1510 1511 1514 1516 1518 1520 1522 1523 1526 1527 1529 1530 1532 1533 1534 1534 1535 1535 1536 1536 1535 1535 1535 1534 1533 1532 1531 1530 1529 1527 1526 1524 1522 1521 1518 1516 1514 1511 1508 1506
1501 1503 1505 1507 1509 1511 1513 1516 1517 1519 1521 1523 1524 1526 1527 1528 1530 1530 1531 1532 1532 1532 1532 1531 1531 1531 1530 1529 1528 1527 1526 1525 1523 1522 1520 1518 1516 1514 1512 1509 1507 1504 1502
1499 1501 1503 1505 1507 1509 1511 1513 1515 1517 1518 1520 1522 1523 1524 1525 1526 1527 1527 1528 1528 1528 1528 1527 1527 1526 1526 1525 1524 1523 1522 1521 1519 1517 1516 1514 1512 1510 1508 1505 1503 1500 1497
1497 1499 1501 1503 1504 1506 1508 1510 1512 1514 1515 1517 1518 1520 1521 1522 1523 1523 1524 1524 1524 1524 1524 1523 1523 1522 1521 1520 1520 1518 1517 1516 1515 1513 1511 1510 1508 1506 1504 1501 1499 1496 1493
1495 1497 1498 1500 1502 1504 1506 1508 1509 1511 1512 1514 1515 1517 1518 1518 1519 1519 1520 1520 1520 1520 1520 1519 1519 1518 1517 1516 1515 1514 1513 1512 1510 1509 1507 1505 1503 1501 1499 1497 1494 1492 1489